Cherryvale, KS

9:50 AM CDT on September 30, 2016 (GMT -0500)
Tri-City

Weather History for KPPF - April, 2013

Change the Weather History Date:

Sunday, April 21, 2013

  Actual Average Record
Temperature  
Mean Temperature 60 °F -  
Max Temperature 69 °F 69 °F 90 °F (1963)
Min Temperature 51 °F 46 °F 28 °F (1966)
Degree Days  
Heating Degree Days 6    
Growing Degree Days 10 (Base 50)    
Moisture  
Dew Point 40 °F    
Average Humidity 52    
Maximum Humidity 74    
Minimum Humidity 36    
Precipitation  
Precipitation 0.00 in - - ()
Sea Level Pressure  
Sea Level Pressure 30.16 in    
Wind  
Wind Speed 7 mph (SSE)    
Max Wind Speed 15 mph    
Max Gust Speed 24 mph    
Visibility 10 miles    
Events      
Averages and records for this station are not official NWS values.
T = Trace of Precipitation, MM = Missing Value Source: NWS Daily Summary

Daily Weather History Graph

Daily Weather History Graph

Search for Another Location

Airport or City:

Trip Planner

Search our weather history database for the weather conditions in past years. The results will help you decide how hot, cold, wet, or windy it might be!

Date:

Astronomy

Apr. 21, 2013 Rise Set
Actual Time 6:39 AM CDT 8:02 PM CDT
Civil Twilight 6:11 AM CDT 8:30 PM CDT
Nautical Twilight 5:39 AM CDT 9:03 PM CDT
Astronomical Twilight 5:04 AM CDT 9:37 PM CDT
Moon 3:54 PM CDT (4/21) 3:56 AM CDT (4/21)
Length of Visible Light 14h 18m
Length of Day
13h 23m
Waxing Gibbous, 80% of the Moon is Illuminated
Apr 21
Waxing Gibbous
Apr 25
Full
May 2
Last Quarter
May 9
New
May 17
First Quarter

Hourly Weather History & Observations

Time (CDT) Temp. Dew Point Humidity Pressure Visibility Wind Dir Wind Speed Gust Speed Precip Events Conditions
12:52 AM 57.0 °F 36.0 °F 45% 30.14 in 10.0 mi SE 6.9 mph - N/A   Partly Cloudy
1:52 AM 55.9 °F 37.0 °F 49% 30.14 in 10.0 mi SE 8.1 mph - N/A   Clear
2:52 AM 54.0 °F 37.9 °F 55% 30.15 in 10.0 mi SE 4.6 mph - N/A   Clear
3:52 AM 53.1 °F 37.9 °F 57% 30.15 in 10.0 mi SE 4.6 mph - N/A   Clear
4:52 AM 53.1 °F 39.9 °F 61% 30.17 in 10.0 mi SSE 4.6 mph - N/A   Partly Cloudy
5:52 AM 54.0 °F 39.0 °F 57% 30.18 in 10.0 mi SSE 6.9 mph - N/A   Scattered Clouds
6:52 AM 54.0 °F 39.0 °F 57% 30.20 in 10.0 mi SSE 5.8 mph - N/A   Mostly Cloudy
7:52 AM 54.0 °F 39.9 °F 59% 30.21 in 10.0 mi SSE 8.1 mph - N/A   Mostly Cloudy
8:52 AM 55.9 °F 41.0 °F 57% 30.21 in 10.0 mi South 9.2 mph - N/A   Clear
9:52 AM 57.9 °F 41.0 °F 53% 30.22 in 10.0 mi SSE 10.4 mph 17.3 mph N/A   Mostly Cloudy
10:52 AM 60.1 °F 39.9 °F 47% 30.23 in 10.0 mi South 15.0 mph 24.2 mph N/A   Mostly Cloudy
11:52 AM 61.0 °F 39.9 °F 46% 30.23 in 10.0 mi South 12.7 mph 23.0 mph N/A   Overcast
12:52 PM 61.0 °F 41.0 °F 48% 30.21 in 10.0 mi South 10.4 mph 21.9 mph N/A   Overcast
1:52 PM 64.0 °F 43.0 °F 46% 30.18 in 10.0 mi SSE 10.4 mph 18.4 mph N/A   Overcast
2:52 PM 66.0 °F 43.0 °F 43% 30.15 in 10.0 mi SSE 8.1 mph 18.4 mph N/A   Partly Cloudy
3:52 PM 68.0 °F 41.0 °F 37% 30.13 in 10.0 mi South 12.7 mph 19.6 mph N/A   Mostly Cloudy
4:52 PM 68.0 °F 39.9 °F 36% 30.11 in 10.0 mi South 11.5 mph 17.3 mph N/A   Clear
5:52 PM 66.9 °F 39.0 °F 36% 30.11 in 10.0 mi South 11.5 mph 19.6 mph N/A   Clear
6:52 PM 66.9 °F 39.9 °F 37% 30.11 in 10.0 mi South 8.1 mph - N/A   Clear
7:52 PM 63.0 °F 42.1 °F 46% 30.12 in 10.0 mi SSE 3.5 mph - N/A   Clear
8:52 PM 55.9 °F 45.0 °F 67% 30.13 in 10.0 mi East 3.5 mph - N/A   Clear
9:52 PM 55.9 °F 43.0 °F 62% 30.15 in 10.0 mi ESE 3.5 mph - N/A   Clear
10:52 PM 51.1 °F 43.0 °F 74% 30.15 in 10.0 mi ESE 3.5 mph - N/A   Clear
11:52 PM 53.1 °F 42.1 °F 66% 30.15 in 10.0 mi Calm Calm - N/A   Clear